STARLINK-5455 (55668 NORAD) Tracking and Keplerian Element Data

This shows tracking and keplerian element data for the satellite.

Feedback or suggestion? Click here.




ElementValue
Catalog55668
NameSTARLINK-5455
Epoch Orbit130
Epoch Day62.91667824
Epoch Year2023
RAAN110.1864
Inclination70
Eccentricity0.0003562
Argument of Perigee261.2098
Mean Anonmoly345.7487
Mean Motion15.75196261
Decay Rate-0.00972971
L11 55668U 23021AS 23062.91667824 -.00972971 00000+0 -72464-2 0 9995
L22 55668 70.0000 110.1864 0003562 261.2098 345.7487 15.75196261 1309



Live tracking and technical data element details for STARLINK-5455 (NORAD 55668). STARLINK-5455 can be tracked NOW for your location showing map with azimuth and elevation plus other details from your city location.







IsCatalogInMostPopularTable: catalog: 55668, numindb: 1
Update: records affected: 1



GetName: 55668 STARLINK-5455

Hit Count: updated at: Wed, 22 Mar 2023 17:07:53 GMT